sat.trackr.live / text

‹ back to catalog

STARLINK-11511 [DTC]

NORAD 62468 · 2024-254G

PAYLOAD ACTIVE UNKNOWN

§ Identity

Operator
Country
US
Launch date
2024-12-31
Launch site
AFETR
Launch vehicle
Mass (kg)
RCS (m²)

Purposes: comms

External: N2YO · Heavens-Above · Gunter

§ Orbital elements

Epoch: 2026-09-20T21:45:26.021952Z

Period
91.67 min
Inclination
42.9998°
Eccentricity
0.0001182
Mean motion
15.70840851 rev/d
Perigee alt
355.7 km
Apogee alt
357.3 km
Semi-major
6,734.6 km
B*
7.9274e-4
RAAN
126.2903°
Arg perigee
245.5517°
Mean anomaly
114.5227°
Rev number
10,010

§ Raw data

STARLINK-11511 [DTC]1 62468U 24254G   26263.90655118  .00102536  00000+0  79274-3 0  99952 62468  42.9998 126.2903 0001182 245.5517 114.5227 15.70840851100106

JSON: /api/v1/satellites/62468 · /tle

For live sub-satellite position, see the globe view (requires WebGL).

§ Visibility from observer

Set your observer location to see the next 7 days of passes ≥ 10°. The values pass through the URL so the page stays shareable.

No JS? Fill the form by hand. The geolocation button needs JavaScript.